Regional Weather Roundup
Issued by NWS

Home | Current Version | Previous Version | Text Only | Print | Product List | Glossary On
Versions: 1 2 3 4 5 6 7 8 9 10 11 12 13 14 15 16 17 18 19 20 21 22 23 24 25 26 27
000
ASUS46 KPQR 250810
RWROR

OREGON REGIONAL WEATHER ROUNDUP
NATIONAL WEATHER SERVICE PORTLAND OR
100 AM PDT MON JUL 25 2016

NOTE: "FAIR" INDICATES FEW OR NO CLOUDS BELOW 12,000 FEET WITH
NO SIGNIFICANT WEATHER AND/OR OBSTRUCTIONS TO VISIBILITY.

ORZ001>013-250900-
NORTHWEST OREGON


CITY           SKY/WX    TMP DP  RH WIND       PRES   REMARKS
ASTORIA        CLOUDY    62  57  83 NW12      30.06S
NEWPORT        CLOUDY    57  55  94 N6        30.10S
PORTLAND       CLEAR     69  57  65 NW6       29.99R
VANCOUVER WA   CLEAR     70  57  63 VRB3      29.99R
SCAPPOOSE      CLEAR     67  56  67 N8        29.98R
HILLSBORO      CLEAR     67  57  70 W10       29.99R
AURORA         CLEAR     64  58  80 SW3       30.01R
MCMINNVILLE    CLEAR     61  56  83 SW10      30.01R
SALEM          CLEAR     67  56  67 NW3       30.00R
CORVALLIS        N/A     61  55  82 W15       30.03R
EUGENE         CLEAR     62  55  77 SW6       30.03R
$$

ORZ021-028-250900-
SOUTHWEST OREGON


CITY           SKY/WX    TMP DP  RH WIND       PRES   REMARKS
NORTH BEND     CLOUDY    61  57  88 N6        30.10S
BROOKINGS      CLOUDY    54  53  97 CALM      30.03R FOG
ROSEBURG       CLEAR     66  54  65 N3        30.03R
SEXTON SUMMIT  CLEAR     58  53  84 N12       30.10R
MEDFORD        CLEAR     74  49  41 CALM      29.98R
$$

ORZ014>016-041-250900-
COLUMBIA GORGE


CITY           SKY/WX    TMP DP  RH WIND       PRES   REMARKS
TROUTDALE      CLEAR     67  58  72 CALM      29.99R
THE DALLES     CLEAR     73  49  42 W3        29.92R
$$

ORZ029>031-041-044-049-050-061>064-502-503-505>511-250900-
EASTERN OREGON


CITY           SKY/WX    TMP DP  RH WIND       PRES   REMARKS
REDMOND        CLEAR     69  38  32 W6        30.05S
BEND           CLEAR     68  39  34 W7        30.07S
PRINEVILLE     CLEAR     61  45  55 CALM      30.06R
KLAMATH FALLS  CLEAR     60  50  69 S5        30.09R
LAKEVIEW       CLEAR    N/A N/A N/A NE6       30.13R
HERMISTON      CLEAR     65  45  48 SE6       29.92R
PENDLETON      CLEAR     64  43  46 SE9       29.96S
JOHN DAY       CLEAR     70  40  32 CALM      30.08S
MEACHAM        CLEAR     49  43  80 CALM      30.10S
LA GRANDE      CLEAR     63  39  42 CALM      30.03R
BAKER CITY     CLEAR     56  44  64 S3        30.06S
BURNS          CLEAR     56  31  38 SW5       30.07R
ROME             N/A     67  34  29 NE8       30.04R
ONTARIO        CLEAR     63  47  55 W3        29.95S
$$




USA.gov is the U.S. government's official web portal to all federal, state and local government web resources and services.